Flag for Moldova Weather past 2 weeks in Cahul, Moldova

Now
78 °F

Passing clouds.


Feels Like: 79 °F
Forecast: 72 / 98 °F
Wind: 1 mph from Southwest

Location: Galati

Current Time: Jul 7, 2015 at 10:05:34 AM

Latest Report: Jul 7, 2015 at 9:00 AM


Visibility: 13 mi

Pressure: 30.01 "Hg

Humidity: 68%

Dew point: 66 °F

Location of CahulLocation

Historic Weather in Cahul — Graph

°F

Cahul temperature yesterday

Maximum temperature yesterday: 92 °F (at 8:00 PM)
Minimum temperature yesterday: 65 °F (at 5:00 AM)
Average temperature yesterday: 79 °F

Past Weeks' High & Low Weather Summary

 TemperatureHumidityPressure
High92 °F (Jul 6, 8:00 PM)98% (Jul 4, 7:00 AM)30.27 "Hg (Jul 4, 7:00 AM)
Low58 °F (Jun 23, 5:00 AM)27% (Jun 28, 7:00 PM)29.80 "Hg (Jun 26, 7:00 PM)
Average72 °F60%30.01 "Hg
* Reported Jun 22 9:00 AM — Jul 7 9:00 AM, Cahul, Weather by CustomWeather, © 2015

Note: Actual official high and low records may vary slightly from our data, if they occured in-between our weather recording intervals... More about our weather records

Advertising

Cahul weather history for previous 24 hours

 ConditionsComfort  
Time TempWeatherWind HumidityBarometerVisibility
9:00 AM
Tue, Jul 7
78 °FPassing clouds.1 mph68%30.01 "Hg12 mi
8:00 AM72 °FScattered clouds.2 mph77%30.00 "Hg12 mi
5:00 AM69 °FPassing clouds.1 mph82%29.98 "Hg12 mi
4:00 AM71 °FPassing clouds.1 mph74%29.98 "Hg12 mi
3:00 AM73 °FPassing clouds.2 mph65%29.99 "Hg12 mi
2:00 AM74 °FClear.2 mph65%29.99 "Hg12 mi
1:00 AM76 °FClear.1 mph63%30.00 "Hg12 mi
11:00 PM
Mon, Jul 6
79 °FPassing clouds.1 mph59%30.00 "Hg12 mi
10:00 PM81 °FPassing clouds.1 mph51%29.98 "Hg12 mi
9:00 PM85 °FPassing clouds.No wind48%29.98 "Hg12 mi
8:00 PM92 °FPassing clouds.No wind31%29.97 "Hg12 mi
7:00 PM91 °FScattered clouds.1 mph34%29.97 "Hg12 mi
6:00 PM91 °FScattered clouds.2 mph33%29.97 "Hg12 mi
5:00 PM90 °FPassing clouds.3 mph35%29.99 "Hg12 mi
4:00 PM90 °FPassing clouds.1 mph36%29.99 "Hg12 mi
3:00 PM88 °FPassing clouds.2 mph37%29.99 "Hg12 mi
2:00 PM86 °FPassing clouds.1 mph41%30.00 "Hg12 mi
1:00 PM85 °FSunny.2 mph48%30.01 "Hg12 mi
12:00 PM83 °FSunny.1 mph47%30.02 "Hg12 mi
11:00 AM80 °FSunny.2 mph49%30.02 "Hg12 mi
10:00 AM77 °FSunny.2 mph55%30.02 "Hg12 mi
Weather by CustomWeather, © 2015

See weather overviewHow to use our weather pages